Location: Banios
(43.0451°N, 0.2335°E)
Time: 12:01:05
(UTC+00:00)

A-11 Canister half - Pass Details

Date: 15 May 2021
Orbit: 1513 x 1686 km, 47.2° (Epoch: 14 June)

Event Time Altitude Azimuth Distance (km) Brightness Sun altitude
Rises 14:38:54 0° 242° (WSW) 4,684 12.2 48.2°
Reaches altitude 10° 14:41:56 10° 242° (WSW) 3,689 12.0 47.6°
Maximum altitude 14:51:14 86° 156° (SSE) 1,520 9.9 46.0°
Drops below altitude 10° 15:00:31 10° 68° (ENE) 3,688 10.7 44.4°
Sets 15:03:34 0° 68° (ENE) 4,683 11.1 43.9°
